Location: Lewisville
(33.0462°N, 96.9942°W)
Time: 12:18:19
(UTC-06:00)

Tiangong - Visible Passes

Search period start: 30 November 2023 00:00
Search period end: 10 December 2023 00:00
Orbit: 374 x 384 km, 41.5° (Epoch: 30 November)

Date Brightness Start Highest point End Pass type
(mag) Time Alt. Az. Time Alt. Az. Time Alt. Az.
30 Nov -1.2 18:17:43 10° NW 18:20:37 32° NNE 18:21:52 23° ENE visible
01 Dec -2.2 18:52:37 10° WNW 18:55:46 84° SSW 18:55:46 84° SSW visible
02 Dec -1.9 17:50:56 10° NW 17:54:01 49° NNE 17:57:05 10° E visible
02 Dec 0.6 19:28:06 10° W 19:29:50 19° WSW 19:29:50 19° WSW visible
03 Dec -1.0 18:25:50 10° WNW 18:28:51 43° SSW 18:31:51 10° SE visible
04 Dec 1.1 19:02:15 10° WSW 19:03:19 11° SW 19:04:23 10° SSW visible
05 Dec 0.4 17:58:57 10° W 18:01:32 23° SW 18:04:05 10° SSE visible
